QPF
0.02 0.02 0.02 0.02 0.01 0.02 0.02 0.03 0.04 0.04 0.05 0.07 0.08 0.10 0.06 0.04 0.04 0.05 0.05 0.11 0.20 0.08 0.04 0.03 0.04 0.04 0.04 0.04 0.04 0.05 0.05 0.04 0.04 0.06 0.09 0.11 0.09 0.08 0.08 0.10 0.12 0.17 0.15
0.02 0.02 0.02 0.01 0.01 0.02 0.02 0.03 0.04 0.04 0.05 0.06 0.09 0.12 0.05 0.04 0.05 0.06 0.07 0.12 0.14 0.06 0.05 0.03 0.03 0.04 0.05 0.06 0.04 0.04 0.04 0.03 0.05 0.06 0.07 0.06 0.08 0.08 0.12 0.15 0.16 0.16 0.16
0.03 0.03 0.02 0.02 0.02 0.02 0.02 0.04 0.04 0.06 0.06 0.05 0.07 0.10 0.05 0.04 0.04 0.05 0.06 0.08 0.07 0.06 0.05 0.02 0.03 0.04 0.04 0.04 0.03 0.04 0.04 0.04 0.05 0.06 0.06 0.06 0.04 0.04 0.08 0.14 0.17 0.17 0.16
0.05 0.03 0.02 0.02 0.03 0.03 0.05 0.05 0.05 0.06 0.05 0.04 0.06 0.07 0.06 0.04 0.04 0.05 0.04 0.05 0.05 0.05 0.04 0.04 0.04 0.04 0.04 0.04 0.03 0.05 0.05 0.04 0.04 0.05 0.05 0.05 0.03 0.03 0.05 0.11 0.18 0.16 0.16
0.06 0.05 0.02 0.02 0.03 0.04 0.05 0.03 0.03 0.04 0.03 0.03 0.04 0.05 0.05 0.04 0.06 0.07 0.04 0.05 0.06 0.06 0.05 0.05 0.04 0.05 0.04 0.04 0.04 0.06 0.06 0.04 0.03 0.04 0.05 0.06 0.06 0.04 0.04 0.05 0.11 0.12 0.11
0.04 0.04 0.03 0.03 0.03 0.03 0.03 0.02 0.02 0.02 0.02 0.02 0.03 0.04 0.04 0.05 0.05 0.04 0.03 0.04 0.05 0.06 0.07 0.06 0.07 0.06 0.06 0.05 0.06 0.08 0.07 0.06 0.05 0.05 0.06 0.06 0.06 0.06 0.07 0.04 0.04 0.05 0.05
0.04 0.05 0.03 0.05 0.04 0.03 0.02 0.02 0.02 0.02 0.02 0.01 0.02 0.04 0.05 0.06 0.07 0.05 0.04 0.04 0.05 0.05 0.07 0.08 0.09 0.08 0.07 0.07 0.09 0.11 0.09 0.08 0.07 0.07 0.06 0.06 0.06 0.08 0.08 0.07 0.05 0.05 0.06
0.04 0.04 0.03 0.03 0.03 0.02 0.01 0.02 0.03 0.02 0.02 0.03 0.04 0.06 0.06 0.07 0.06 0.05 0.07 0.07 0.05 0.05 0.06 0.08 0.06 0.06 0.07 0.08 0.08 0.08 0.06 0.06 0.06 0.07 0.08 0.07 0.07 0.10 0.12 0.13 0.13 0.11 0.11
0.05 0.03 0.01 0.02 0.01 0.01 0.01 0.02 0.03 0.03 0.03 0.03 0.05 0.06 0.05 0.05 0.04 0.03 0.06 0.08 0.07 0.06 0.07 0.07 0.06 0.08 0.10 0.10 0.08 0.08 0.07 0.07 0.07 0.06 0.07 0.08 0.07 0.10 0.13 0.14 0.16 0.15 0.12
0.03 0.05 0.04 0.02 0.01 0.00 0.01 0.01 0.01 0.01 0.02 0.02 0.03 0.04 0.04 0.04 0.04 0.04 0.06 0.07 0.08 0.07 0.06 0.07 0.08 0.09 0.08 0.09 0.10 0.10 0.09 0.08 0.07 0.08 0.08 0.08 0.07 0.08 0.10 0.13 0.15 0.12 0.10
0.02 0.04 0.03 0.01 0.00 0.00 0.01 0.01 0.01 0.01 0.01 0.01 0.03 0.04 0.05 0.06 0.05 0.03 0.03 0.05 0.05 0.05 0.06 0.07 0.08 0.08 0.09 0.09 0.10 0.10 0.10 0.10 0.09 0.08 0.08 0.09 0.09 0.08 0.07 0.07 0.08 0.10 0.11
0.01 0.01 0.01 0.00 0.00 0.00 0.00 0.00 0.00 0.01 0.01 0.02 0.03 0.04 0.05 0.05 0.04 0.03 0.03 0.06 0.04 0.04 0.04 0.06 0.08 0.07 0.08 0.08 0.07 0.08 0.09 0.10 0.08 0.07 0.07 0.08 0.08 0.06 0.07 0.08 0.08 0.07 0.09
0.00 0.00 0.00 0.00 0.00 0.00 0.00 0.00 0.00 0.01 0.02 0.02 0.02 0.02 0.03 0.04 0.05 0.04 0.03 0.04 0.03 0.03 0.03 0.06 0.07 0.08 0.08 0.08 0.07 0.06 0.07 0.07 0.05 0.05 0.05 0.05 0.06 0.04 0.05 0.06 0.07 0.07 0.08
0.00 0.00 0.00 0.00 0.00 0.00 0.00 0.00 0.00 0.01 0.03 0.02 0.01 0.01 0.02 0.05 0.07 0.06 0.05 0.04 0.03 0.02 0.03 0.05 0.06 0.06 0.06 0.06 0.06 0.07 0.07 0.07 0.04 0.03 0.04 0.05 0.05 0.03 0.04 0.05 0.06 0.08 0.09
0.01 0.00 0.00 0.00 0.00 0.00 0.00 0.00 0.01 0.01 0.04 0.03 0.02 0.02 0.03 0.05 0.11 0.15 0.10 0.05 0.02 0.02 0.02 0.03 0.04 0.03 0.04 0.05 0.07 0.07 0.06 0.06 0.05 0.05 0.06 0.06 0.07 0.07 0.07 0.07 0.09 0.10 0.11
0.02 0.01 0.01 0.00 0.00 0.00 0.00 0.00 0.01 0.01 0.03 0.03 0.03 0.03 0.03 0.04 0.05 0.06 0.05 0.03 0.02 0.02 0.02 0.02 0.02 0.03 0.03 0.03 0.04 0.04 0.05 0.06 0.06 0.07 0.07 0.07 0.07 0.08 0.10 0.10 0.10 0.10 0.09
0.01 0.01 0.01 0.00 0.01 0.01 0.00 0.01 0.01 0.02 0.01 0.02 0.03 0.04 0.04 0.04 0.03 0.03 0.04 0.03 0.03 0.03 0.03 0.02 0.02 0.02 0.04 0.04 0.04 0.04 0.05 0.05 0.05 0.05 0.05 0.05 0.06 0.07 0.08 0.09 0.09 0.09 0.08
0.01 0.01 0.01 0.01 0.01 0.01 0.02 0.03 0.03 0.03 0.03 0.02 0.03 0.03 0.04 0.04 0.03 0.04 0.04 0.03 0.03 0.02 0.02 0.03 0.03 0.03 0.04 0.04 0.04 0.04 0.03 0.02 0.02 0.02 0.03 0.04 0.04 0.04 0.04 0.03 0.03 0.04 0.04
0.03 0.02 0.02 0.02 0.03 0.03 0.04 0.05 0.05 0.04 0.04 0.03 0.03 0.03 0.03 0.03 0.03 0.02 0.02 0.02 0.01 0.01 0.02 0.02 0.03 0.04 0.05 0.06 0.05 0.04 0.02 0.01 0.01 0.02 0.03 0.03 0.02 0.02 0.03 0.02 0.02 0.03 0.03
0.04 0.02 0.02 0.03 0.04 0.05 0.05 0.04 0.04 0.03 0.04 0.04 0.03 0.04 0.03 0.03 0.03 0.02 0.02 0.01 0.02 0.03 0.03 0.03 0.03 0.04 0.05 0.04 0.03 0.03 0.02 0.02 0.02 0.02 0.02 0.02 0.01 0.01 0.01 0.01 0.00 0.00 0.00
0.02 0.02 0.02 0.03 0.03 0.03 0.04 0.07 0.08 0.04 0.03 0.03 0.03 0.03 0.03 0.04 0.04 0.03 0.02 0.02 0.02 0.02 0.01 0.02 0.02 0.03 0.03 0.03 0.03 0.03 0.03 0.03 0.02 0.01 0.01 0.01 0.01 0.01 0.01 0.00 0.00 0.00 0.01
0.02 0.02 0.02 0.03 0.03 0.02 0.02 0.04 0.04 0.02 0.02 0.03 0.02 0.03 0.02 0.04 0.05 0.04 0.04 0.04 0.02 0.01 0.01 0.01 0.02 0.02 0.01 0.02 0.03 0.02 0.02 0.02 0.02 0.01 0.01 0.01 0.01 0.00 0.01 0.01 0.01 0.01 0.02
0.05 0.04 0.04 0.05 0.04 0.03 0.03 0.02 0.02 0.02 0.02 0.03 0.03 0.03 0.03 0.03 0.04 0.04 0.04 0.03 0.02 0.02 0.02 0.01 0.02 0.02 0.02 0.02 0.03 0.02 0.01 0.01 0.01 0.01 0.02 0.01 0.01 0.01 0.01 0.01 0.02 0.02 0.02
0.08 0.07 0.07 0.07 0.06 0.06 0.05 0.05 0.04 0.04 0.03 0.03 0.02 0.01 0.01 0.01 0.02 0.02 0.03 0.04 0.04 0.04 0.03 0.02 0.02 0.03 0.02 0.02 0.03 0.03 0.02 0.02 0.02 0.02 0.02 0.02 0.02 0.01 0.01 0.01 0.01 0.01 0.01
0.12 0.10 0.10 0.09 0.08 0.08 0.07 0.07 0.06 0.05 0.05 0.04 0.03 0.03 0.03 0.02 0.02 0.02 0.02 0.03 0.03 0.04 0.03 0.02 0.03 0.04 0.04 0.05 0.05 0.04 0.04 0.05 0.04 0.03 0.03 0.03 0.02 0.01 0.01 0.01 0.01 0.01 0.02
0.09 0.09 0.09 0.09 0.08 0.08 0.08 0.08 0.06 0.05 0.05 0.04 0.04 0.04 0.05 0.04 0.05 0.04 0.03 0.04 0.04 0.03 0.02 0.03 0.03 0.03 0.03 0.03 0.02 0.02 0.02 0.02 0.02 0.02 0.02 0.02 0.02 0.01 0.01 0.01 0.01 0.01 0.01
MSLP
1012.57 1012.76 1012.94 1013.12 1013.29 1013.50 1013.76 1014.10 1014.53 1015.04 1015.60 1016.16 1016.66 1017.06 1017.33 1017.45 1017.45 1017.36 1017.23 1017.12 1017.06 1017.09 1017.20 1017.40 1017.65 1017.93 1018.21 1018.49 1018.77 1019.05 1019.34 1019.64 1019.94 1020.24 1020.49 1020.68 1020.77 1020.75 1020.64 1020.44 1020.21 1019.98 1019.82
1012.69 1012.95 1013.17 1013.33 1013.46 1013.58 1013.74 1014.00 1014.37 1014.86 1015.43 1016.04 1016.61 1017.09 1017.42 1017.59 1017.60 1017.50 1017.34 1017.19 1017.09 1017.09 1017.19 1017.38 1017.64 1017.94 1018.25 1018.55 1018.84 1019.12 1019.41 1019.70 1020.01 1020.30 1020.55 1020.74 1020.83 1020.81 1020.67 1020.44 1020.16 1019.87 1019.63
1012.82 1013.17 1013.44 1013.62 1013.71 1013.76 1013.83 1013.98 1014.27 1014.70 1015.25 1015.87 1016.48 1017.01 1017.39 1017.61 1017.65 1017.55 1017.39 1017.22 1017.11 1017.09 1017.19 1017.39 1017.66 1017.97 1018.28 1018.58 1018.86 1019.13 1019.40 1019.68 1019.96 1020.25 1020.51 1020.70 1020.80 1020.79 1020.66 1020.43 1020.12 1019.80 1019.51
1012.94 1013.38 1013.72 1013.93 1014.00 1014.00 1013.98 1014.03 1014.21 1014.56 1015.05 1015.64 1016.26 1016.81 1017.23 1017.48 1017.55 1017.49 1017.34 1017.19 1017.08 1017.07 1017.17 1017.37 1017.64 1017.95 1018.26 1018.55 1018.81 1019.05 1019.29 1019.53 1019.80 1020.07 1020.33 1020.55 1020.68 1020.70 1020.60 1020.39 1020.10 1019.76 1019.44
1013.03 1013.55 1013.97 1014.22 1014.30 1014.25 1014.16 1014.11 1014.20 1014.44 1014.86 1015.39 1015.97 1016.51 1016.95 1017.22 1017.33 1017.30 1017.19 1017.05 1016.97 1016.97 1017.08 1017.29 1017.56 1017.87 1018.16 1018.43 1018.65 1018.86 1019.05 1019.27 1019.51 1019.77 1020.04 1020.27 1020.44 1020.52 1020.47 1020.30 1020.04 1019.72 1019.39
1013.07 1013.66 1014.14 1014.44 1014.54 1014.47 1014.33 1014.21 1014.20 1014.34 1014.66 1015.12 1015.64 1016.16 1016.59 1016.87 1017.01 1017.01 1016.93 1016.83 1016.77 1016.80 1016.92 1017.13 1017.40 1017.69 1017.96 1018.20 1018.39 1018.55 1018.71 1018.89 1019.10 1019.35 1019.62 1019.88 1020.10 1020.23 1020.24 1020.14 1019.94 1019.66 1019.33
1013.06 1013.70 1014.23 1014.57 1014.69 1014.63 1014.46 1014.28 1014.19 1014.26 1014.49 1014.86 1015.32 1015.79 1016.19 1016.48 1016.63 1016.66 1016.62 1016.55 1016.52 1016.56 1016.70 1016.91 1017.17 1017.44 1017.68 1017.89 1018.04 1018.17 1018.28 1018.43 1018.61 1018.85 1019.12 1019.41 1019.66 1019.84 1019.92 1019.89 1019.75 1019.52 1019.24
1012.99 1013.65 1014.21 1014.59 1014.75 1014.70 1014.53 1014.32 1014.19 1014.18 1014.34 1014.64 1015.04 1015.46 1015.83 1016.11 1016.26 1016.31 1016.30 1016.26 1016.25 1016.31 1016.45 1016.66 1016.91 1017.15 1017.37 1017.54 1017.66 1017.75 1017.83 1017.94 1018.09 1018.31 1018.58 1018.87 1019.15 1019.37 1019.51 1019.55 1019.47 1019.30 1019.07
1012.87 1013.53 1014.12 1014.52 1014.71 1014.69 1014.53 1014.33 1014.18 1014.14 1014.25 1014.49 1014.83 1015.20 1015.54 1015.80 1015.95 1016.01 1016.02 1016.00 1016.02 1016.09 1016.23 1016.43 1016.66 1016.89 1017.08 1017.22 1017.31 1017.36 1017.41 1017.48 1017.61 1017.79 1018.04 1018.32 1018.61 1018.86 1019.03 1019.12 1019.10 1019.00 1018.82
1012.73 1013.38 1013.96 1014.38 1014.60 1014.61 1014.49 1014.32 1014.17 1014.13 1014.22 1014.42 1014.72 1015.04 1015.35 1015.58 1015.73 1015.80 1015.81 1015.82 1015.85 1015.93 1016.07 1016.26 1016.48 1016.69 1016.86 1016.97 1017.04 1017.06 1017.08 1017.11 1017.20 1017.35 1017.57 1017.82 1018.09 1018.34 1018.54 1018.65 1018.68 1018.63 1018.51
1012.58 1013.21 1013.79 1014.21 1014.44 1014.50 1014.42 1014.29 1014.19 1014.16 1014.25 1014.44 1014.70 1014.99 1015.26 1015.47 1015.60 1015.66 1015.69 1015.70 1015.75 1015.84 1015.99 1016.18 1016.39 1016.58 1016.74 1016.84 1016.88 1016.88 1016.87 1016.88 1016.93 1017.04 1017.21 1017.42 1017.66 1017.89 1018.07 1018.20 1018.25 1018.23 1018.16
1012.45 1013.05 1013.60 1014.02 1014.27 1014.36 1014.34 1014.27 1014.22 1014.23 1014.33 1014.51 1014.75 1015.01 1015.24 1015.42 1015.53 1015.59 1015.61 1015.64 1015.70 1015.81 1015.97 1016.16 1016.37 1016.56 1016.71 1016.80 1016.84 1016.83 1016.80 1016.78 1016.80 1016.87 1016.99 1017.16 1017.35 1017.53 1017.69 1017.80 1017.86 1017.86 1017.81
1012.31 1012.88 1013.40 1013.80 1014.06 1014.20 1014.23 1014.23 1014.24 1014.30 1014.42 1014.61 1014.83 1015.05 1015.24 1015.39 1015.48 1015.52 1015.55 1015.60 1015.67 1015.80 1015.98 1016.19 1016.41 1016.61 1016.76 1016.86 1016.89 1016.88 1016.85 1016.82 1016.81 1016.85 1016.93 1017.05 1017.19 1017.33 1017.44 1017.52 1017.56 1017.56 1017.52
1012.12 1012.65 1013.13 1013.52 1013.80 1013.97 1014.07 1014.14 1014.21 1014.33 1014.48 1014.68 1014.88 1015.07 1015.23 1015.34 1015.40 1015.44 1015.47 1015.53 1015.63 1015.78 1015.99 1016.22 1016.46 1016.68 1016.84 1016.96 1017.01 1017.01 1016.98 1016.95 1016.93 1016.95 1017.00 1017.09 1017.18 1017.27 1017.35 1017.38 1017.39 1017.36 1017.32
1011.82 1012.30 1012.75 1013.12 1013.41 1013.63 1013.80 1013.95 1014.11 1014.28 1014.48 1014.68 1014.87 1015.04 1015.16 1015.24 1015.28 1015.31 1015.36 1015.43 1015.56 1015.75 1015.98 1016.24 1016.51 1016.74 1016.93 1017.06 1017.14 1017.16 1017.15 1017.14 1017.13 1017.15 1017.19 1017.25 1017.31 1017.37 1017.40 1017.40 1017.36 1017.30 1017.23
1011.35 1011.78 1012.19 1012.56 1012.88 1013.16 1013.41 1013.65 1013.89 1014.14 1014.38 1014.60 1014.80 1014.95 1015.05 1015.11 1015.14 1015.17 1015.23 1015.33 1015.49 1015.70 1015.97 1016.26 1016.54 1016.80 1017.01 1017.16 1017.26 1017.31 1017.33 1017.34 1017.36 1017.40 1017.44 1017.50 1017.55 1017.58 1017.58 1017.55 1017.47 1017.38 1017.27
1010.68 1011.06 1011.45 1011.83 1012.19 1012.54 1012.88 1013.23 1013.57 1013.89 1014.20 1014.46 1014.67 1014.82 1014.92 1014.98 1015.02 1015.06 1015.14 1015.27 1015.46 1015.70 1015.99 1016.30 1016.59 1016.86 1017.08 1017.25 1017.36 1017.44 1017.49 1017.54 1017.59 1017.65 1017.72 1017.79 1017.85 1017.88 1017.87 1017.81 1017.71 1017.57 1017.43
1009.86 1010.20 1010.57 1010.97 1011.38 1011.82 1012.27 1012.72 1013.17 1013.59 1013.96 1014.28 1014.53 1014.71 1014.84 1014.91 1014.98 1015.05 1015.16 1015.32 1015.54 1015.80 1016.10 1016.41 1016.70 1016.96 1017.17 1017.33 1017.46 1017.55 1017.62 1017.70 1017.79 1017.89 1017.99 1018.09 1018.17 1018.20 1018.19 1018.13 1018.02 1017.87 1017.70
1009.00 1009.31 1009.68 1010.10 1010.58 1011.10 1011.65 1012.21 1012.76 1013.28 1013.75 1014.14 1014.45 1014.69 1014.86 1014.98 1015.09 1015.21 1015.35 1015.54 1015.78 1016.05 1016.34 1016.62 1016.89 1017.12 1017.30 1017.45 1017.56 1017.65 1017.74 1017.84 1017.95 1018.08 1018.22 1018.35 1018.46 1018.52 1018.53 1018.48 1018.37 1018.23 1018.06
1008.29 1008.56 1008.93 1009.38 1009.91 1010.50 1011.14 1011.80 1012.45 1013.06 1013.61 1014.09 1014.47 1014.78 1015.02 1015.21 1015.38 1015.55 1015.74 1015.95 1016.20 1016.46 1016.72 1016.97 1017.18 1017.36 1017.49 1017.59 1017.67 1017.75 1017.84 1017.95 1018.08 1018.24 1018.40 1018.56 1018.70 1018.79 1018.83 1018.81 1018.73 1018.61 1018.46
1007.89 1008.14 1008.50 1008.96 1009.52 1010.16 1010.86 1011.58 1012.30 1012.98 1013.61 1014.16 1014.62 1015.01 1015.33 1015.59 1015.83 1016.06 1016.29 1016.53 1016.77 1017.01 1017.23 1017.41 1017.56 1017.67 1017.74 1017.78 1017.82 1017.87 1017.94 1018.05 1018.19 1018.36 1018.55 1018.73 1018.89 1019.01 1019.08 1019.09 1019.06 1018.98 1018.87
1007.96 1008.18 1008.51 1008.96 1009.51 1010.16 1010.86 1011.61 1012.35 1013.08 1013.75 1014.36 1014.89 1015.35 1015.75 1016.09 1016.40 1016.68 1016.95 1017.20 1017.43 1017.64 1017.80 1017.92 1017.99 1018.02 1018.02 1018.01 1018.01 1018.02 1018.07 1018.17 1018.31 1018.48 1018.67 1018.86 1019.03 1019.17 1019.27 1019.33 1019.34 1019.32 1019.27
1008.53 1008.70 1009.00 1009.40 1009.91 1010.51 1011.17 1011.89 1012.61 1013.33 1014.02 1014.65 1015.23 1015.75 1016.21 1016.63 1017.00 1017.33 1017.63 1017.89 1018.10 1018.27 1018.38 1018.43 1018.43 1018.39 1018.33 1018.27 1018.22 1018.21 1018.25 1018.33 1018.46 1018.63 1018.81 1019.00 1019.17 1019.32 1019.43 1019.52 1019.57 1019.60 1019.62
1009.53 1009.66 1009.89 1010.22 1010.65 1011.16 1011.74 1012.37 1013.03 1013.70 1014.35 1014.99 1015.58 1016.14 1016.66 1017.13 1017.55 1017.92 1018.25 1018.51 1018.71 1018.84 1018.90 1018.90 1018.84 1018.75 1018.65 1018.55 1018.48 1018.46 1018.48 1018.56 1018.68 1018.83 1019.00 1019.17 1019.33 1019.47 1019.59 1019.68 1019.76 1019.84 1019.91
1010.81 1010.89 1011.05 1011.29 1011.60 1011.99 1012.45 1012.96 1013.52 1014.11 1014.71 1015.31 1015.90 1016.47 1017.02 1017.53 1017.99 1018.40 1018.74 1019.01 1019.19 1019.30 1019.33 1019.29 1019.20 1019.09 1018.96 1018.86 1018.79 1018.76 1018.79 1018.86 1018.98 1019.11 1019.26 1019.41 1019.54 1019.66 1019.76 1019.85 1019.94 1020.03 1020.13
1012.13 1012.17 1012.26 1012.40 1012.60 1012.86 1013.19 1013.57 1014.01 1014.49 1015.02 1015.57 1016.14 1016.71 1017.28 1017.81 1018.30 1018.73 1019.09 1019.37 1019.55 1019.65 1019.67 1019.62 1019.52 1019.40 1019.29 1019.19 1019.14 1019.13 1019.17 1019.25 1019.36 1019.49 1019.61 1019.72 1019.82 1019.90 1019.97 1020.03 1020.10 1020.18 1020.28
Thickness
5813 5814 5810 5806 5800 5795 5791 5786 5780 5776 5773 5768 5765 5761 5758 5758 5757 5757 5756 5756 5755 5754 5753 5752 5751 5749 5748 5746 5746 5744 5742 5741 5741 5737 5734 5736 5739 5739 5738 5737 5736 5735 5733
5810 5810 5808 5805 5800 5795 5791 5786 5782 5778 5774 5771 5767 5764 5761 5759 5758 5757 5755 5755 5754 5754 5753 5752 5750 5749 5747 5746 5745 5743 5740 5739 5740 5734 5728 5725 5727 5733 5737 5736 5735 5734 5733
5811 5810 5808 5804 5800 5795 5792 5788 5783 5779 5775 5772 5768 5764 5760 5758 5756 5754 5754 5755 5754 5754 5753 5752 5750 5749 5748 5746 5745 5743 5740 5736 5737 5737 5730 5721 5718 5723 5730 5732 5733 5733 5731
5816 5811 5808 5803 5799 5797 5794 5790 5785 5780 5776 5773 5768 5762 5757 5754 5754 5754 5754 5754 5754 5753 5752 5751 5750 5749 5747 5746 5745 5745 5742 5738 5734 5735 5735 5732 5729 5722 5720 5725 5728 5730 5729
5817 5812 5809 5805 5802 5798 5794 5790 5785 5780 5777 5773 5769 5764 5759 5757 5756 5755 5754 5753 5753 5753 5752 5750 5749 5748 5747 5746 5745 5744 5743 5741 5737 5734 5733 5731 5729 5727 5720 5716 5719 5722 5724
5817 5812 5809 5804 5800 5798 5794 5789 5784 5780 5777 5773 5769 5765 5760 5757 5754 5753 5751 5751 5751 5751 5750 5750 5749 5747 5746 5745 5745 5744 5742 5741 5739 5737 5734 5731 5727 5724 5721 5716 5715 5715 5718
5816 5810 5805 5801 5798 5796 5792 5789 5784 5779 5777 5773 5769 5765 5762 5758 5755 5753 5751 5750 5749 5748 5749 5749 5748 5746 5745 5745 5744 5742 5741 5740 5738 5737 5735 5733 5731 5728 5724 5719 5714 5712 5713
5816 5812 5808 5804 5800 5796 5793 5789 5784 5779 5776 5773 5769 5766 5763 5760 5757 5755 5753 5751 5750 5749 5749 5748 5746 5745 5744 5743 5742 5741 5740 5739 5737 5736 5734 5732 5731 5729 5725 5721 5715 5708 5707
5817 5813 5809 5805 5801 5797 5794 5790 5785 5780 5777 5774 5770 5767 5764 5761 5758 5757 5755 5752 5750 5749 5748 5746 5745 5744 5743 5742 5740 5739 5738 5736 5735 5733 5732 5730 5729 5728 5726 5723 5719 5710 5703
5817 5813 5810 5806 5803 5799 5795 5791 5786 5781 5778 5774 5771 5767 5765 5762 5759 5756 5753 5751 5750 5748 5746 5745 5743 5742 5741 5739 5737 5736 5735 5733 5731 5730 5728 5727 5726 5725 5723 5721 5718 5715 5708
5816 5813 5810 5807 5803 5799 5794 5790 5785 5781 5777 5774 5770 5767 5764 5761 5759 5755 5753 5751 5749 5747 5744 5742 5741 5740 5738 5737 5735 5733 5731 5729 5728 5727 5725 5724 5723 5721 5720 5718 5716 5712 5708
5818 5815 5811 5807 5802 5797 5793 5789 5785 5781 5777 5774 5769 5766 5763 5760 5757 5754 5751 5749 5747 5745 5743 5741 5739 5737 5735 5734 5732 5730 5728 5725 5723 5722 5721 5720 5720 5718 5716 5715 5712 5709 5707
5815 5812 5809 5805 5801 5796 5792 5788 5784 5780 5777 5773 5768 5764 5761 5758 5754 5752 5750 5747 5745 5742 5740 5738 5735 5733 5732 5730 5728 5726 5724 5722 5720 5719 5717 5716 5715 5713 5712 5710 5708 5705 5702
5813 5809 5806 5804 5801 5797 5792 5787 5783 5780 5776 5771 5766 5761 5758 5756 5753 5750 5747 5745 5742 5739 5736 5734 5732 5730 5728 5726 5724 5722 5720 5717 5716 5715 5714 5713 5711 5709 5708 5706 5703 5700 5695
5811 5808 5804 5802 5799 5795 5791 5787 5782 5778 5774 5768 5763 5759 5757 5754 5751 5747 5744 5742 5738 5736 5733 5730 5727 5725 5723 5722 5719 5718 5716 5713 5711 5710 5709 5708 5707 5706 5704 5701 5698 5694 5690
5810 5808 5805 5801 5798 5794 5790 5786 5781 5777 5772 5766 5761 5758 5755 5751 5747 5744 5741 5737 5734 5730 5727 5724 5721 5719 5718 5716 5715 5713 5710 5708 5705 5703 5702 5702 5701 5700 5698 5695 5693 5690 5685
5812 5809 5805 5802 5798 5795 5791 5784 5780 5775 5770 5764 5760 5756 5752 5747 5743 5740 5736 5732 5729 5725 5722 5718 5716 5713 5711 5710 5709 5707 5705 5702 5699 5697 5695 5694 5693 5691 5689 5687 5685 5681 5678
5813 5811 5808 5802 5798 5794 5789 5784 5777 5771 5766 5761 5756 5752 5748 5743 5739 5735 5731 5727 5724 5721 5717 5713 5711 5708 5705 5704 5703 5701 5698 5695 5691 5689 5687 5685 5683 5682 5680 5677 5674 5670 5667
5816 5812 5808 5802 5796 5791 5787 5780 5773 5766 5761 5757 5753 5749 5745 5739 5735 5731 5726 5723 5719 5715 5711 5708 5705 5701 5699 5697 5696 5694 5690 5686 5683 5680 5679 5677 5675 5673 5671 5668 5664 5660 5657
5812 5808 5804 5798 5791 5787 5783 5775 5768 5763 5758 5754 5751 5747 5742 5737 5731 5727 5722 5718 5714 5709 5706 5702 5698 5695 5692 5691 5689 5687 5683 5678 5674 5672 5670 5668 5666 5664 5662 5659 5656 5651 5647
5806 5803 5798 5792 5787 5783 5778 5769 5764 5759 5756 5752 5747 5742 5738 5733 5727 5722 5717 5713 5708 5703 5699 5695 5691 5688 5686 5684 5682 5680 5676 5672 5667 5663 5660 5658 5657 5655 5652 5650 5646 5642 5638
5794 5793 5788 5782 5778 5776 5770 5763 5758 5755 5751 5747 5742 5736 5732 5728 5723 5717 5711 5707 5702 5696 5692 5687 5684 5681 5678 5676 5674 5672 5669 5665 5661 5656 5652 5649 5648 5645 5643 5639 5636 5632 5628
5782 5780 5776 5771 5768 5765 5762 5755 5751 5749 5745 5739 5734 5729 5725 5720 5716 5711 5706 5700 5695 5690 5685 5681 5677 5673 5670 5667 5665 5663 5660 5656 5652 5648 5644 5641 5638 5635 5632 5629 5626 5622 5617
5769 5768 5763 5759 5756 5754 5752 5749 5745 5742 5737 5731 5725 5721 5716 5711 5707 5703 5699 5694 5689 5684 5679 5675 5670 5666 5662 5659 5656 5653 5650 5646 5642 5638 5635 5632 5628 5625 5622 5619 5615 5611 5607
5755 5755 5752 5748 5745 5744 5741 5739 5736 5732 5727 5721 5717 5712 5708 5702 5696 5691 5687 5684 5681 5678 5674 5670 5666 5661 5656 5653 5650 5646 5641 5637 5634 5629 5625 5621 5617 5614 5611 5608 5605 5602 5598
5743 5741 5740 5737 5734 5733 5730 5728 5727 5724 5719 5712 5707 5703 5698 5693 5687 5682 5676 5672 5671 5669 5666 5664 5660 5656 5652 5647 5642 5638 5634 5629 5625 5621 5615 5611 5608 5605 5601 5598 5594 5591 5588